COSMOS 2251 DEB, 34478

Orbit data source: Space-Track

COSMOS 2251 DEB, 34478 is space debris in LEO originally from a launch on Wed, 16 Jun 1993 UTC launched from the Plesetsk Missile And Space Complex (PKMTR). The debris from Iridium 33, an American commercial communications satellite, has been tracked extensively since its accidental collision with the defunct Russian satellite Cosmos 2251 in 2009. This event, occurring at high speed in low Earth orbit (LEO), generated thousands of pieces of space debris, significantly increasing the risk of further collisions. The Iridium 33 debris cloud has impacted space traffic management and orbital debris mitigation strategies, making it a subject of ongoing study in space situational awareness.

Not visible in the next 10 days
Identifier
34478, 1993-036TX
Orbit
LEO
Country
Flag of CISCIS
Related business
Manufacturer
Unknown
Mission
Spacecraft
Bus & Motor
Unknown
Mass
Unknown
Launch date (UTC)
1993-06-16 (33 years ago)
Launch vehicle
Unknown
Launch site
Plesetsk Missile And Space Complex (PKMTR)
Object type
Payload
Rocket body
Debris
Shape & HBR
Unknown shape, 0.1 m
Radar Cross Section
Small (<0.1 m²)

Expand to show TLE details & history
Last TLE update: 1 day ago

TLE from 1 day ago
0 COSMOS 2251 DEB
1 34478U 93036TX  26228.00098103  .00495432  00000-0  41977-2 0  9995
2 34478  74.0216 203.7275 0013004 242.9177 117.0720 15.68018993927369
Epoch: 2026-08-16T00:01Z
TLE epoch observation values (Epoch: 2026-08-16T00:01:24.760Z)
Latitude
0.00002°
Longitude
-121.02944°
Altitude
371.338 km
Speed
7.685 km/s
True Right ascension
13h 34m 54s
True Declination
0° 00' 00"
Sunlit
Object was in daylight at epoch
Visualization orbit readout
Latitude
Unknown
Longitude
Unknown
Altitude
Unknown
Speed
Unknown
Apparent Right ascension
Unknown
Apparent Declination
Unknown
Sunlit
N/A
Visualization observer readout
Local Sidereal Time
16:53:13
Azimuth
Unknown
Elevation
Unknown
Doppler factor
Unknown
Orbital elements
Apogee altitude
370.816 km
Perigee altitude
353.287 km
Semi-major axis
6,740.189 km
Eccentricity
0.0013
Inclination
74.0216°
RAAN
203.7275°
Arg. of periapsis
242.9177°
True anomaly
117.20459°
Mean anomaly
117.072°
Eccentric anomaly
117.1383°
Mean motion
3.92225 °/min
Orbital period
91.78 mins
BSTAR
0.0041977
Loading maneuver chart data...
Computing Atmospheric mass density...

Documentation

Showing up to 5 results
|